Location: Rounton
(54.4000°N, 1.3500°W)
Time: 23:38:09
(UTC+01:00)

Vanguard 1 - Pass Details

Date: 01 March 2024
Orbit: 653 x 3825 km, 34.2° (Epoch: 21 April)

Event Time Altitude Azimuth Distance (km) Brightness Sun altitude
Rises 01:23:40 0° 273° (W) 7,080 14.3 -41.2°
Enters shadow 01:28:51 - 261° (W) 6,607 14.0 -40.9°
Reaches altitude 10° 01:30:31 10° 257° (WSW) 6,488 - -40.8°
Maximum altitude 01:42:37 18° 223° (SW) 6,176 - -40.1°
Drops below altitude 10° 01:55:25 10° 189° (S) 6,816 - -39.1°
Sets 02:03:09 0° 174° (S) 7,544 - -38.5°
